N9ALD Weather Reports


time (UTC)temp
C
wind
direction
speed
KPH
gust
KPH
rain 1hr
cm
rain 24hr
cm
rain mn
cm
humidity
%
barometer
mb
20260504034503 12 186 1.6 1.6 0.00 0.00 0.00 63 1007.5
20260504034000 12 313 1.6 1.6 0.00 0.00 0.00 63 1007.5
20260504033457 12 283 3.2 4.8 0.00 0.00 0.00 62 1007.6
20260504032955 12 269 1.6 3.2 0.00 0.00 0.00 62 1007.5
20260504032451 12 280 3.2 4.8 0.00 0.00 0.00 61 1007.8
20260504031948 12 258 1.6 3.2 0.00 0.00 0.00 60 1007.7
20260504031445 13 255 0.0 0.0 0.00 0.00 0.00 60 1007.8
20260504030942 13 261 3.2 3.2 0.00 0.00 0.00 60 1007.6
20260504030439 13 297 1.6 3.2 0.00 0.00 0.00 59 1007.9
20260504025935 13 275 1.6 1.6 0.00 0.00 0.00 59 1007.9
20260504025432 13 204 1.6 3.2 0.00 0.00 0.00 60 1007.7
20260504024929 13 263 1.6 3.2 0.00 0.00 0.00 60 1007.9
20260504024426 13 305 0.0 0.0 0.00 0.00 0.00 60 1008.1
20260504023923 13 213 4.8 4.8 0.00 0.00 0.00 59 1008.0
20260504023419 13 247 3.2 3.2 0.00 0.00 0.00 59 1007.9
20260504022915 13 181 3.2 3.2 0.00 0.00 0.00 58 1007.9
20260504022412 13 270 3.2 3.2 0.00 0.00 0.00 58 1007.9
20260504021908 13 210 1.6 3.2 0.00 0.00 0.00 58 1007.8
20260504021406 13 228 3.2 3.2 0.00 0.00 0.00 58 1007.8
20260504020903 13 326 1.6 1.6 0.00 0.00 0.00 58 1007.9
20260504020359 13 324 1.6 1.6 0.00 0.00 0.00 58 1007.7
20260504015855 13 291 3.2 4.8 0.00 0.00 0.00 57 1007.6
20260504015351 13 275 3.2 4.8 0.00 0.00 0.00 58 1007.7
20260504014848 13 268 3.2 3.2 0.00 0.00 0.00 58 1007.5
20260504014343 13 164 1.6 1.6 0.00 0.00 0.00 58 1007.5
20260504013841 13 261 3.2 4.8 0.00 0.00 0.00 57 1007.5
20260504013339 13 248 4.8 4.8 0.00 0.00 0.00 58 1007.6
20260504012836 13 220 4.8 4.8 0.00 0.00 0.00 58 1007.7
20260504012334 13 222 8.0 9.7 0.00 0.00 0.00 57 1007.6
20260504011831 13 213 3.2 4.8 0.00 0.00 0.00 57 1007.5
20260504011327 13 201 3.2 3.2 0.00 0.00 0.00 57 1007.5
20260504010823 13 234 4.8 4.8 0.00 0.00 0.00 57 1007.5
20260504010319 14 220 6.4 9.7 0.00 0.00 0.00 57 1007.7
20260504005815 14 223 3.2 3.2 0.00 0.00 0.00 57 1007.5
20260504005313 14 242 8.0 12.9 0.00 0.00 0.00 56 1007.6
20260504004810 14 189 4.8 6.4 0.00 0.00 0.00 55 1007.8
20260504004308 14 258 1.6 3.2 0.00 0.00 0.00 56 1007.8
20260504003804 15 274 3.2 4.8 0.00 0.00 0.00 55 1007.6
20260504003301 15 254 6.4 9.7 0.00 0.00 0.00 55 1007.6
20260504002757 15 253 6.4 6.4 0.00 0.00 0.00 55 1007.5
20260504002254 15 227 3.2 4.8 0.00 0.00 0.00 55 1007.6
20260504001752 15 231 9.7 12.9 0.00 0.00 0.00 54 1007.4
20260504001249 15 149 6.4 9.7 0.00 0.00 0.00 55 1007.5
20260504000746 15 236 8.0 12.9 0.00 0.00 0.00 55 1007.5
20260504000243 15 247 11.3 16.1 0.00 0.00 0.00 54 1007.5
20260503235741 15 254 6.4 9.7 0.00 0.00 0.00 55 1007.7
20260503235237 15 208 11.3 14.5 0.00 0.00 0.00 55 1007.6
20260503234735 15 233 9.7 11.3 0.00 0.00 0.00 54 1007.3
20260503234233 15 231 9.7 16.1 0.00 0.00 0.00 55 1007.4
20260503233730 15 247 11.3 16.1 0.00 0.00 0.00 54 1007.4
20260503233226 15 227 9.7 11.3 0.00 0.00 0.00 55 1007.2
20260503232723 15 209 14.5 20.9 0.00 0.00 0.00 55 1007.4
20260503232220 14 212 6.4 9.7 0.00 0.00 0.00 57 1007.7
20260503231719 14 250 12.9 14.5 0.00 0.00 0.00 58 1007.9
20260503231215 14 225 8.0 11.3 0.00 0.00 0.00 58 1008.0
20260503230711 15 246 8.0 11.3 0.00 0.00 0.00 57 1008.1
20260503230208 15 215 12.9 16.1 0.00 0.00 0.00 55 1008.0
20260503225706 15 246 6.4 12.9 0.00 0.00 0.00 54 1008.0
20260503225206 15 242 9.7 11.3 0.00 0.00 0.00 53 1007.9
20260503224703 15 223 8.0 9.7 0.00 0.00 0.00 54 1007.7
20260503224201 15 201 12.9 16.1 0.00 0.00 0.00 53 1007.7
20260503223658 15 237 8.0 11.3 0.00 0.00 0.00 54 1007.6
20260503223155 15 197 9.7 12.9 0.00 0.00 0.00 54 1007.6
20260503222652 15 220 11.3 14.5 0.00 0.00 0.00 51 1007.8
20260503222150 15 227 8.0 11.3 0.00 0.00 0.00 54 1007.9
20260503221648 15 247 8.0 11.3 0.00 0.00 0.00 52 1008.5
20260503221145 15 216 11.3 16.1 0.00 0.00 0.00 51 1008.5
20260503220642 15 199 6.4 9.7 0.00 0.00 0.00 52 1008.5
20260503220138 15 246 11.3 12.9 0.00 0.00 0.00 50 1008.1
20260503215636 16 253 9.7 12.9 0.00 0.00 0.00 49 1008.3
20260503215132 16 145 17.7 22.5 0.00 0.00 0.00 48 1008.4
20260503214631 16 222 9.7 14.5 0.00 0.00 0.00 48 1008.5
20260503214126 16 235 16.1 17.7 0.00 0.00 0.00 48 1008.7
20260503213626 16 260 14.5 17.7 0.00 0.00 0.00 48 1009.0
20260503213122 16 235 14.5 17.7 0.00 0.00 0.00 47 1009.1
20260503212620 16 237 22.5 33.8 0.00 0.00 0.00 45 1008.9
20260503212117 16 275 16.1 17.7 0.00 0.00 0.00 46 1008.7
20260503211614 17 178 14.5 17.7 0.00 0.00 0.00 46 1009.0
20260503211110 17 254 16.1 20.9 0.00 0.00 0.00 46 1008.8
20260503210606 17 272 12.9 16.1 0.00 0.00 0.00 47 1009.1
20260503205559 16 217 9.7 12.9 0.00 0.00 0.00 48 1009.3
20260503205055 16 222 8.0 14.5 0.00 0.00 0.00 48 1009.3
20260503204552 16 256 17.7 25.7 0.00 0.00 0.00 46 1009.7
20260503204049 17 268 14.5 17.7 0.00 0.00 0.00 46 1009.8
20260503203546 16 202 12.9 14.5 0.00 0.00 0.00 47 1010.1
20260503203043 17 259 14.5 22.5 0.00 0.00 0.00 46 1010.2
20260503202542 16 236 9.7 14.5 0.00 0.00 0.00 47 1010.5
20260503202039 16 207 14.5 16.1 0.00 0.00 0.00 46 1010.6
20260503201537 16 212 11.3 14.5 0.00 0.00 0.00 45 1010.6
20260503201034 16 264 12.9 16.1 0.00 0.00 0.00 44 1011.0
20260503200530 16 214 11.3 14.5 0.00 0.00 0.00 46 1011.2
20260503200027 16 186 8.0 11.3 0.00 0.00 0.00 46 1011.1
20260503195524 16 220 9.7 11.3 0.00 0.00 0.00 46 1011.3
20260503195021 16 171 14.5 22.5 0.00 0.00 0.00 47 1011.2
20260503194518 16 208 11.3 17.7 0.00 0.00 0.00 45 1011.5
20260503194018 16 205 11.3 14.5 0.00 0.00 0.00 47 1011.6
20260503193515 16 246 9.7 12.9 0.00 0.00 0.00 46 1011.4
20260503193010 15 196 12.9 16.1 0.00 0.00 0.00 46 1011.8
20260503192506 15 226 11.3 14.5 0.00 0.00 0.00 47 1012.1
20260503192002 16 226 14.5 16.1 0.00 0.00 0.00 46 1012.0
20260503191500 16 231 14.5 16.1 0.00 0.00 0.00 46 1011.7
20260503190955 16 222 11.3 14.5 0.00 0.00 0.00 48 1011.7
20260503190453 16 247 12.9 17.7 0.00 0.00 0.00 46 1011.4
20260503185950 16 242 14.5 24.1 0.00 0.00 0.00 46 1011.7
20260503185446 16 260 9.7 12.9 0.00 0.00 0.00 45 1011.6
20260503184946 16 232 12.9 20.9 0.00 0.00 0.00 46 1011.7
20260503184443 16 233 8.0 9.7 0.00 0.00 0.00 46 1012.1
20260503183939 16 224 12.9 16.1 0.00 0.00 0.00 46 1012.0
20260503183436 16 201 12.9 16.1 0.00 0.00 0.00 46 1012.2
20260503182933 17 191 8.0 9.7 0.00 0.00 0.00 47 1011.9
20260503182432 16 236 17.7 22.5 0.00 0.00 0.00 46 1012.4
20260503181929 16 210 14.5 17.7 0.00 0.00 0.00 48 1012.4
20260503181426 16 264 6.4 12.9 0.00 0.00 0.00 49 1012.6
20260503180921 16 255 9.7 12.9 0.00 0.00 0.00 45 1012.5
20260503180420 16 236 11.3 16.1 0.00 0.00 0.00 46 1012.5
20260503175916 16 213 14.5 16.1 0.00 0.00 0.00 47 1012.7
20260503175415 16 255 11.3 17.7 0.00 0.00 0.00 46 1012.9
20260503174909 16 181 11.3 12.9 0.00 0.00 0.00 47 1013.3
20260503174408 15 213 16.1 22.5 0.00 0.00 0.00 46 1013.2
20260503173903 16 240 14.5 20.9 0.00 0.00 0.00 44 1013.5
20260503173359 16 266 19.3 22.5 0.00 0.00 0.00 46 1013.7
20260503172856 15 237 12.9 17.7 0.00 0.00 0.00 46 1013.7
20260503172354 15 190 24.1 29.0 0.00 0.00 0.00 47 1013.6
20260503171849 15 264 9.7 11.3 0.00 0.00 0.00 47 1013.8
20260503171346 15 282 8.0 12.9 0.00 0.00 0.00 47 1014.1
20260503170844 15 263 12.9 14.5 0.00 0.00 0.00 46 1013.9
20260503170340 15 246 4.8 6.4 0.00 0.00 0.00 45 1013.9
20260503150733 13 196 9.7 20.9 0.00 0.00 0.00 51 1015.4
20260503150229 13 204 8.0 12.9 0.00 0.00 0.00 51 1015.5
20260503140153 11 236 16.1 22.5 0.00 0.00 0.00 50 1015.5
20260503131123 8 182 6.4 6.4 0.00 0.00 0.00 61 1015.7
20260503130620 8 185 6.4 9.7 0.00 0.00 0.00 62 1015.5
20260503130118 7 232 6.4 6.4 0.00 0.00 0.00 64 1015.6
20260503110510 3 250 3.2 3.2 0.00 0.00 0.00 76 1015.1
20260503090402 3 300 1.6 1.6 0.00 0.00 0.00 78 1014.9
20260503081329 2 322 0.0 0.0 0.00 0.00 0.00 80 1014.9
20260503080825 2 310 0.0 0.0 0.00 0.00 0.00 81 1014.9
20260503080323 2 309 0.0 0.0 0.00 0.00 0.00 82 1014.8
20260503072759 2 316 0.0 0.0 0.00 0.00 0.00 82 1014.8
20260503072256 2 317 0.0 0.0 0.00 0.00 0.00 83 1015.0
20260503071752 2 322 0.0 0.0 0.00 0.00 0.00 84 1015.0
20260503071249 2 323 0.0 0.0 0.00 0.00 0.00 84 1014.9
20260503070745 2 322 0.0 0.0 0.00 0.00 0.00 85 1015.0
20260503070244 2 315 0.0 0.0 0.00 0.00 0.00 87 1015.1
20260503060215 2 324 0.0 0.0 0.00 0.00 0.00 89 1015.2
20260503054701 2 324 0.0 0.0 0.00 0.00 0.00 88 1015.4
20260503054159 2 324 0.0 0.0 0.00 0.00 0.00 88 1015.3
20260503053657 2 323 0.0 0.0 0.00 0.00 0.00 87 1015.4
20260503053155 2 323 0.0 0.0 0.00 0.00 0.00 87 1015.4
20260503052651 2 323 0.0 0.0 0.00 0.00 0.00 87 1015.5
20260503052148 2 323 0.0 0.0 0.00 0.00 0.00 87 1015.4
20260503051643 2 324 0.0 0.0 0.00 0.00 0.00 86 1015.5
20260503051141 2 323 0.0 0.0 0.00 0.00 0.00 86 1015.5
20260503050637 2 323 0.0 0.0 0.00 0.00 0.00 85 1015.6
20260503050134 3 323 0.0 0.0 0.00 0.00 0.00 85 1015.5
20260503045632 3 323 0.0 0.0 0.00 0.00 0.00 84 1015.6
20260503045129 3 323 0.0 0.0 0.00 0.00 0.00 83 1015.6
20260503044625 3 324 0.0 0.0 0.00 0.00 0.00 83 1015.6
20260503044123 3 322 0.0 0.0 0.00 0.00 0.00 82 1015.6
20260503043619 3 288 0.0 0.0 0.00 0.00 0.00 82 1015.5
20260503043116 3 288 0.0 0.0 0.00 0.00 0.00 82 1015.5
20260503042613 3 324 0.0 0.0 0.00 0.00 0.00 82 1015.8
20260503042109 3 324 0.0 0.0 0.00 0.00 0.00 82 1015.6
20260503041605 3 324 0.0 0.0 0.00 0.00 0.00 83 1015.7
20260503041104 3 325 0.0 0.0 0.00 0.00 0.00 82 1015.4
20260503040600 3 325 0.0 0.0 0.00 0.00 0.00 82 1015.5
20260503040058 3 325 0.0 0.0 0.00 0.00 0.00 82 1015.6
20260503035554 3 324 0.0 0.0 0.00 0.00 0.00 82 1015.6
20260503035052 3 324 0.0 0.0 0.00 0.00 0.00 82 1015.6
20260503034549 3 324 0.0 0.0 0.00 0.00 0.00 82 1015.6